[[{"header":{"parameterUnit":"m.s-1","parameterCategory":1,"la1":30.2991,"la2":30.254,"lo1":-89.0895,"lo2":-89.0444,"dy":0.0017,"dx":0.0017,"nx":28,"ny":28,"refTime":"2024-02-29T03:00:00:Z","depth":0,"parameterNumber":2,"parameterNumberName":"U-component_of_WINDS"},"data":[0,0,0,0,0,0,0,0,0,0,0,0,0,0,0,0,0,0,0,0,0,0,0,0,0,0,0,0,0,0,0,0,0,0,0,0,0,0,0,0,0,0,0,0,0,0,0,0,0,0,0,0,0,0,0,0,0,0,-4.3368,-4.337,0,-4.3543,-4.3545,-4.3547,-4.3491,-4.3487,-4.3483,-4.348,-4.3664,-4.3672,-4.368,0,0,0,0,0,0,0,0,0,0,0,0,0,-4.2986,-4.2994,-4.3368,-4.337,-4.3372,-4.3543,-4.3546,-4.3548,-4.3492,-4.3487,-4.3482,-4.3478,-4.3661,-4.3671,-4.3681,0,0,0,0,0,0,0,0,0,0,0,0,0,-4.3156,-4.2996,-4.3367,-4.3364,-4.3366,-4.3543,-4.3546,-4.3549,-4.3492,-4.3487,-4.3481,-4.3476,-4.3658,-4.367,-4.3682,-4.3874,0,0,-4.3721,-4.3726,0,0,0,0,0,0,0,0,-4.3147,-4.317,-4.3363,-4.3365,-4.3367,-4.3489,-4.3478,-4.3658,-4.3494,-4.3445,-4.348,-4.3473,-4.361,-4.3627,-4.3672,-4.3882,-4.389,-4.3722,-4.373,-4.3735,-4.3739,0,0,0,0,0,0,0,-4.3135,-4.3162,-4.3437,-4.3365,-4.3368,-4.3355,-4.3373,-4.3512,-4.3557,-4.3448,-4.3445,-4.3466,-4.3611,-4.366,-4.3676,-4.3893,-4.3722,-4.3733,-4.3741,-4.3746,-4.427,-4.4276,0,0,0,0,0,0,-4.3121,-4.3153,-4.3432,-4.3442,-4.324,-4.3367,-4.3387,-4.3456,-4.3556,-4.3565,-4.3471,-4.3463,-4.3641,-4.3661,-4.3682,-4.3914,-4.3735,-4.3747,-4.3754,-4.4264,-4.4272,-4.4279,0,0,0,0,0,0,-4.3113,-4.3147,-4.3425,-4.3297,-4.3331,-4.3379,-4.3457,-4.3462,-4.3512,-4.3572,-4.358,-4.3513,-4.3638,-4.3665,-4.3827,-4.392,-4.3752,-4.3764,-4.4256,-4.4266,-4.4275,-4.4379,0,0,0,0,0,0,-4.3103,-4.3144,-4.3217,-4.3299,-4.3338,-4.3565,-4.3463,-4.347,-4.3533,-4.3525,-4.3614,-4.3624,-4.3635,-4.3808,-4.3839,-4.3934,-4.3774,-4.4248,-4.4261,-4.4272,-4.4368,-4.4391,-4.4411,0,0,0,0,0,-4.3089,-4.324,-4.3221,-4.3255,-4.343,-4.3571,-4.3593,-4.3603,-4.3541,-4.3615,-4.3654,-4.3621,-4.3904,-4.3825,-4.386,-4.396,-4.4243,-4.4257,-4.4271,-4.4358,-4.4387,-4.4411,0,0,0,0,0,0,-4.3169,-4.325,-4.323,-4.3411,-4.3484,-4.3561,-4.3654,-4.3632,-4.3725,-4.3714,-4.3722,-4.3743,-4.391,-4.395,-4.3861,-4.4151,-4.4064,-4.4086,-4.4119,-4.4146,-4.4168,-4.4156,-4.3784,0,0,0,0,0,-4.3207,-4.3313,-4.3379,-4.3533,-4.357,-4.3606,-4.3668,-4.3669,-4.3745,-4.3776,-4.3827,-4.3904,-4.401,-4.408,-4.4181,-4.4373,-4.4393,-4.4459,-4.448,-4.4498,-4.4518,-4.4624,-4.4655,-4.4326,-4.4325,-4.4325,0,0,-4.3288,-4.3345,-4.3413,-4.355,-4.3607,-4.3719,-4.3633,-4.3754,-4.3838,-4.3795,-4.3951,-4.3991,-4.4077,-4.4255,-4.4336,-4.4295,-4.4613,-4.4516,-4.453,-4.454,-4.4642,-4.4673,-4.4701,-4.4335,-4.4334,-4.4332,0,0,-4.3493,-4.3546,-4.3681,-4.3739,-4.3825,-4.3848,-4.388,-4.396,-4.3985,-4.4141,-4.4112,-4.4211,-4.4394,-4.4457,-4.4513,-4.4741,-4.4715,-4.4774,-4.4889,-4.4992,-4.5018,-4.5041,-4.5125,-4.5154,-4.4793,-4.4793,-4.4793,0,-4.3583,-4.3749,-4.3753,-4.3877,-4.3939,-4.3904,-4.4041,-4.4098,-4.4214,-4.4258,-4.4209,-4.4438,-4.4493,-4.4686,-4.4742,-4.4788,-4.4826,-4.4765,-4.5014,-4.5037,-4.5059,-4.5139,-4.517,-4.48,-4.4799,-4.4798,-4.4798,0,-4.3856,-4.3972,-4.407,-4.4182,-4.4254,-4.4385,-4.441,-4.4483,-4.4477,-4.4506,-4.4666,-4.4731,-4.4845,-4.4891,-4.4886,-4.5084,-4.5056,-4.501,-4.4924,-4.5097,-4.5172,-4.5203,-4.4809,-4.4807,-4.4805,-4.4803,0,0,-4.4118,-4.4229,-4.4266,-4.4316,-4.4409,-4.4499,-4.4627,-4.4738,-4.4802,-4.4882,-4.4992,-4.5147,-4.5106,-4.5169,-4.5171,-4.5262,-4.5441,-4.5206,-4.5208,-4.5249,-4.5666,-4.5701,-4.5736,-4.5423,-4.5429,-4.5434,-4.5659,0,-4.4332,-4.4558,-4.4565,-4.4772,-4.488,-4.4847,-4.496,-4.503,-4.5059,-4.5156,-4.5189,-4.5299,-4.5235,-4.5273,-4.5361,-4.5401,-4.5525,-4.5384,-4.5528,-4.5533,-4.551,-4.5775,-4.5813,-4.6023,-4.5688,-4.5693,-4.5697,0,-4.4613,-4.4702,-4.4919,-4.4996,-4.5042,-4.5143,-4.5245,-4.5337,-4.5416,-4.5431,-4.5502,-4.5491,-4.5624,-4.5531,-4.5716,-4.562,-4.5679,-4.5707,-4.5715,-4.5732,-4.5627,-4.5801,-4.609,-4.6123,-4.5743,-4.5739,-4.5736,0,-4.4785,-4.4959,-4.5111,-4.5155,-4.5249,-4.5321,-4.5363,-4.5436,-4.5502,-4.5592,-4.5635,-4.5739,-4.5797,-4.5879,-4.5897,-4.5827,-4.6083,-4.5991,-4.6102,-4.6102,-4.6159,-4.6156,-4.6465,-4.6193,-4.6193,-4.6192,-4.6191,0,-4.5025,-4.516,-4.519,-4.5284,-4.5435,-4.5442,-4.5591,-4.5628,-4.5693,-4.5796,-4.5773,-4.587,-4.5887,-4.5988,-4.6003,-4.6155,-4.6181,-4.6198,-4.6201,-4.6202,-4.62,-4.6243,-4.623,-4.62,-4.6198,-4.6197,-4.6195,0,-4.5244,-4.5269,-4.5434,-4.5508,-4.553,-4.5638,-4.5703,-4.5794,-4.582,-4.595,-4.5981,-4.6023,-4.6141,-4.6166,-4.6306,-4.6316,-4.6497,-4.6485,-4.6471,-4.6471,-4.6581,-4.6571,-4.693,-4.6978,-4.6672,-4.6675,-4.6678,0,-4.5397,-4.55,-4.5585,-4.5651,-4.5697,-4.5804,-4.5871,-4.5882,-4.5953,-4.605,-4.6131,-4.6245,-4.6338,-4.6527,-4.6572,-4.6679,-4.667,-4.6788,-4.6686,-4.6684,-4.6675,-4.667,-4.6681,-4.6809,-4.6812,-4.6815,-4.6817,0,-4.5667,-4.5674,-4.5771,-4.5873,-4.5953,-4.6034,-4.6111,-4.6167,-4.6189,-4.627,-4.6389,-4.6461,-4.6603,-4.6718,-4.6825,-4.687,-4.6849,-4.6848,-4.688,-4.6883,-4.6872,-4.6882,-4.6527,-4.6841,-4.6838,-4.6837,-4.6835,-4.6834,-4.5859,-4.595,-4.6024,-4.6133,-4.6192,-4.6264,-4.6354,-4.6391,-4.649,-4.6606,-4.6606,-4.6737,-4.6814,-4.6955,-4.7007,-4.7111,-4.7074,-4.712,-4.7132,-4.7144,-4.7155,-4.6853,-4.713,-4.7129,-4.7129,-4.7128,-4.7128,0,-4.613,-4.6175,-4.6275,-4.6384,-4.647,-4.6439,-4.6523,-4.6598,-4.6713,-4.6785,-4.6876,-4.7014,-4.7126,-4.7178,-4.7289,-4.7362,-4.7355,-4.7391,-4.7387,-4.7399,-4.718,-4.7143,-4.7395,-4.7395,-4.7395,-4.7395,-4.7395,-4.7395,-4.6281,-4.6433,-4.6449,-4.663,-4.6675,-4.6802,-4.6853,-4.692,-4.6978,-4.7133,-4.7225,-4.7258,-4.7323,-4.7438,-4.754,-4.7552,-4.7595,-4.7637,-4.7645,-4.7441,-4.7414,-4.7388,-4.7353,-4.7646,-4.7646,-4.7856,-4.7858,-4.7859]},{"header":{"parameterUnit":"m.s-1","parameterCategory":1,"la1":30.2991,"la2":30.254,"lo1":-89.0895,"lo2":-89.0444,"dy":0.0017,"dx":0.0017,"nx":28,"ny":28,"refTime":"2024-02-29T03:00:00:Z","depth":0,"parameterNumber":3,"parameterNumberName":"V-component_of_WINDS"},"data":[0,0,0,0,0,0,0,0,0,0,0,0,0,0,0,0,0,0,0,0,0,0,0,0,0,0,0,0,0,0,0,0,0,0,0,0,0,0,0,0,0,0,0,0,0,0,0,0,0,0,0,0,0,0,0,0,0,0,-2.9158,-2.9158,0,-2.9186,-2.9186,-2.9187,-2.919,-2.919,-2.9189,-2.9189,-2.9216,-2.9217,-2.9218,0,0,0,0,0,0,0,0,0,0,0,0,0,-2.9103,-2.9104,-2.9158,-2.9158,-2.9158,-2.9186,-2.9186,-2.9187,-2.919,-2.919,-2.9189,-2.9189,-2.9216,-2.9217,-2.9218,0,0,0,0,0,0,0,0,0,0,0,0,0,-2.9129,-2.9105,-2.9157,-2.9163,-2.9164,-2.9186,-2.9186,-2.9187,-2.919,-2.9189,-2.9189,-2.9189,-2.9216,-2.9217,-2.9219,-2.9236,0,0,-2.9223,-2.9224,0,0,0,0,0,0,0,0,-2.9127,-2.9131,-2.9162,-2.9163,-2.9164,-2.9184,-2.9177,-2.9203,-2.919,-2.918,-2.9189,-2.9188,-2.9206,-2.9208,-2.9214,-2.9237,-2.9239,-2.9223,-2.9224,-2.9225,-2.9225,0,0,0,0,0,0,0,-2.9126,-2.9129,-2.9169,-2.9162,-2.9164,-2.9163,-2.9167,-2.9182,-2.9195,-2.9181,-2.9181,-2.9185,-2.9206,-2.9213,-2.9215,-2.9239,-2.9223,-2.9224,-2.9225,-2.9226,-2.9276,-2.9277,0,0,0,0,0,0,-2.9123,-2.9128,-2.9168,-2.917,-2.9144,-2.9165,-2.9168,-2.9178,-2.9195,-2.9197,-2.9185,-2.9185,-2.921,-2.9213,-2.9216,-2.9237,-2.9225,-2.9226,-2.9227,-2.9276,-2.9276,-2.9277,0,0,0,0,0,0,-2.9122,-2.9127,-2.9167,-2.9149,-2.9154,-2.9166,-2.9177,-2.9179,-2.9185,-2.9198,-2.92,-2.919,-2.921,-2.9214,-2.9231,-2.9238,-2.9227,-2.9228,-2.9275,-2.9276,-2.9277,-2.9279,0,0,0,0,0,0,-2.912,-2.9126,-2.9134,-2.9149,-2.9155,-2.9182,-2.9177,-2.918,-2.9188,-2.9188,-2.9203,-2.9205,-2.921,-2.9229,-2.9232,-2.9239,-2.9229,-2.9275,-2.9276,-2.9276,-2.9278,-2.9279,-2.9281,0,0,0,0,0,-2.9118,-2.9133,-2.9134,-2.9139,-2.9165,-2.9182,-2.9186,-2.9192,-2.9189,-2.9196,-2.9203,-2.9204,-2.9236,-2.923,-2.9234,-2.9242,-2.9274,-2.9275,-2.9276,-2.9278,-2.9279,-2.9281,0,0,0,0,0,0,-2.9118,-2.9135,-2.9137,-2.9157,-2.9168,-2.9183,-2.9192,-2.9194,-2.9206,-2.9205,-2.9212,-2.9216,-2.9232,-2.9239,-2.9232,-2.9259,-2.9255,-2.9257,-2.9254,-2.9256,-2.9257,-2.9255,-2.9231,0,0,0,0,0,-2.912,-2.9134,-2.9148,-2.9165,-2.917,-2.918,-2.9188,-2.9192,-2.9204,-2.9209,-2.9218,-2.9228,-2.9241,-2.9249,-2.9261,-2.9279,-2.9282,-2.9286,-2.9287,-2.9288,-2.929,-2.9299,-2.9301,-2.928,-2.928,-2.928,0,0,-2.9125,-2.9136,-2.9145,-2.9165,-2.9174,-2.9187,-2.9184,-2.9198,-2.9208,-2.921,-2.9227,-2.9234,-2.9246,-2.9264,-2.9272,-2.927,-2.9296,-2.929,-2.929,-2.9291,-2.93,-2.9302,-2.9304,-2.9281,-2.9281,-2.928,0,0,-2.9141,-2.9151,-2.9165,-2.9175,-2.9188,-2.9195,-2.9198,-2.9212,-2.9217,-2.9234,-2.9236,-2.9247,-2.9268,-2.9277,-2.9284,-2.9301,-2.9301,-2.9304,-2.9311,-2.9319,-2.9321,-2.9322,-2.9327,-2.9329,-2.9306,-2.9306,-2.9306,0,-2.9145,-2.9166,-2.9172,-2.9186,-2.9195,-2.9198,-2.9211,-2.922,-2.9237,-2.9242,-2.924,-2.9266,-2.9274,-2.9293,-2.9297,-2.9303,-2.9306,-2.9303,-2.932,-2.9322,-2.9323,-2.9328,-2.933,-2.9306,-2.9306,-2.9306,-2.9306,0,-2.9169,-2.9183,-2.9193,-2.921,-2.9219,-2.9233,-2.9241,-2.9249,-2.9252,-2.9258,-2.9274,-2.9284,-2.9298,-2.9303,-2.9306,-2.9322,-2.932,-2.9319,-2.9314,-2.9325,-2.933,-2.9332,-2.9306,-2.9306,-2.9306,-2.9306,0,0,-2.9186,-2.9206,-2.9209,-2.9216,-2.9231,-2.9241,-2.9255,-2.9268,-2.9275,-2.9286,-2.9297,-2.9314,-2.9313,-2.9321,-2.9324,-2.9332,-2.9343,-2.933,-2.933,-2.9331,-2.936,-2.9361,-2.9363,-2.9344,-2.9344,-2.9345,-2.9359,0,-2.9203,-2.9228,-2.9233,-2.9254,-2.9266,-2.9268,-2.928,-2.9289,-2.9295,-2.9306,-2.9312,-2.9324,-2.9322,-2.9326,-2.9334,-2.934,-2.9349,-2.934,-2.9353,-2.9353,-2.9349,-2.9366,-2.9367,-2.938,-2.9361,-2.9361,-2.9362,0,-2.9226,-2.9238,-2.926,-2.9272,-2.9277,-2.9287,-2.9299,-2.931,-2.932,-2.9324,-2.9332,-2.9335,-2.9347,-2.9342,-2.9359,-2.9352,-2.9358,-2.9362,-2.9362,-2.9364,-2.9358,-2.9367,-2.9384,-2.9386,-2.9365,-2.9364,-2.9364,0,-2.9235,-2.9256,-2.9272,-2.9278,-2.9293,-2.9299,-2.9306,-2.9316,-2.9323,-2.9334,-2.9338,-2.935,-2.9356,-2.9365,-2.937,-2.9366,-2.9386,-2.9382,-2.9388,-2.9388,-2.9393,-2.9392,-2.9411,-2.9397,-2.9397,-2.9397,-2.9397,0,-2.9253,-2.9266,-2.9276,-2.9285,-2.9299,-2.9305,-2.9319,-2.9325,-2.9334,-2.9344,-2.9346,-2.9356,-2.9362,-2.9372,-2.9376,-2.9388,-2.9391,-2.9394,-2.9395,-2.9394,-2.9393,-2.9397,-2.9396,-2.9397,-2.9397,-2.9397,-2.9397,0,-2.9266,-2.9273,-2.929,-2.9302,-2.9306,-2.9315,-2.9325,-2.9334,-2.9339,-2.9352,-2.9355,-2.9363,-2.9375,-2.9381,-2.9395,-2.9397,-2.9412,-2.9412,-2.9408,-2.9408,-2.9415,-2.9414,-2.9436,-2.9439,-2.9424,-2.9424,-2.9424,0,-2.9277,-2.9287,-2.93,-2.9307,-2.9313,-2.9325,-2.9332,-2.9338,-2.9345,-2.9357,-2.9364,-2.9376,-2.9385,-2.9403,-2.941,-2.942,-2.9421,-2.9428,-2.9422,-2.942,-2.942,-2.9419,-2.942,-2.9429,-2.9429,-2.9429,-2.9429,0,-2.9295,-2.9298,-2.9309,-2.932,-2.9329,-2.9339,-2.9348,-2.9353,-2.936,-2.9368,-2.938,-2.9387,-2.9402,-2.9413,-2.9423,-2.9429,-2.943,-2.9431,-2.9433,-2.9431,-2.9428,-2.9429,-2.941,-2.943,-2.943,-2.943,-2.943,-2.943,-2.9307,-2.9315,-2.9325,-2.9337,-2.9344,-2.9353,-2.9361,-2.9367,-2.9377,-2.939,-2.9392,-2.9404,-2.9413,-2.9428,-2.9433,-2.9442,-2.9441,-2.9444,-2.9445,-2.9445,-2.9445,-2.9427,-2.9444,-2.9444,-2.9444,-2.9444,-2.9444,0,-2.9324,-2.9331,-2.9341,-2.9354,-2.9363,-2.9363,-2.9373,-2.938,-2.9391,-2.9399,-2.9408,-2.9421,-2.9431,-2.9439,-2.9449,-2.9455,-2.9455,-2.9457,-2.9456,-2.9458,-2.9446,-2.9443,-2.9456,-2.9456,-2.9456,-2.9456,-2.9456,-2.9456,-2.9334,-2.9348,-2.9352,-2.9369,-2.9375,-2.9388,-2.9393,-2.94,-2.9407,-2.9421,-2.943,-2.9434,-2.9442,-2.9453,-2.9462,-2.9464,-2.9467,-2.9469,-2.947,-2.946,-2.9458,-2.9457,-2.9454,-2.947,-2.947,-2.9481,-2.9481,-2.9481]}]]